User: anonymous   Login
Location: Unspecified
(0.0000°N, 0.0000°E)
Time: 10:57:50
(UTC+01:00)
Language:

NOSS 3-3 (A) - Orbit

View from above orbital plane
View from above orbital plane
View from above satellite
View from above satellite

Ground track
Ground track

The orbit data is extracted from the following two-line orbital elements,

1 28537U 05004A   16340.78520868 0.00000000  00000-0  00000-0 0    05
2 28537  63.4274 321.3209 0247000 359.1570   0.8430 13.40719185    00
Epoch (UTC): 05 December 2016 18:50:42
Eccentricity: 0.0247000
inclination: 63.4274°
perigee height: 922 km
apogee height: 1291 km
right ascension of ascending node: 321.3209°
argument of perigee: 359.1570°
revolutions per day: 13.40719185
mean anomaly at epoch: 0.8430°
orbit number at epoch: 0

The dashed part of the orbit path shows where the satellite is in the earth's shadow,  

DLR